Location: Bremen
(53.0793°N, 8.8017°E)
Time: 01:15:01
(UTC+01:00)

Vanguard 1 Rocket - Pass Details

Date: 09 December 2021
Orbit: 651 x 4225 km, 34.3° (Epoch: 26 January)

Event Time Altitude Azimuth Distance (km) Brightness Sun altitude
Rises 03:37:56 0° 242° (WSW) 4,519 - -41.6°
Reaches altitude 10° 03:40:45 10° 232° (SW) 3,905 - -41.2°
Exits shadow 03:49:01 34° 181° (S) 3,372 10.0 -40.1°
Maximum altitude 03:50:15 34° 172° (S) 3,476 10.1 -39.9°
Drops below altitude 10° 04:06:22 10° 117° (ESE) 6,618 12.2 -37.5°
Sets 04:13:08 0° 111° (ESE) 8,067 12.9 -36.5°
